STARLINK-32494, 62053

Orbit data source: Space-Track

STARLINK-32494, 62053 is a payload satellite owned by SpaceX/Seattle (US) in LEO that was launched on Thu, 21 Nov 2024 UTC via an FALCON 9 launch vehicle from the Air Force Eastern Test Range (AFETR). Payload-class satellites include a variety of spacecraft equipped with specific instruments for various scientific and technological missions. These include communications satellites like Starlink; space stations such as the ISS; scientific satellites like the Hubble; Earth observation satellites from companies like Planet Labs, Umbra, and HawkEye 360; GPS; miniature CubeSats for education and research; and military/defense satellites.

Loading next visibility...
Identifier
62053, 2024-216X
Orbit
LEO
Country
Flag of USUS
Related business
Manufacturer
SpaceX/Seattle
Mission
Operational Commercial Communications
Bus & Motor
STARLINK V2M, Unknown motor
Mass
730 kg wet, ~700 kg dry
Launch date (UTC)
2024-11-21 (11 months ago)
Launch vehicle
FALCON 9
Launch site
Air Force Eastern Test Range (AFETR)
Object type
Payload
Rocket body
Debris
Shape & HBR
Box + 2 Pan, 17.7 m
Radar Cross Section
33.884 m², Large (>1 m²)

Expand to show TLE details & history
Last TLE update: 12 hours ago

TLE from 12 hours ago
0 STARLINK-32494
1 62053U 24216X   25287.28676554  .00031939  00000-0  11660-2 0  9999
2 62053  43.0041  10.1848 0000660 278.2749  81.8028 15.27557183 51404
Epoch: 2025-10-14T06:52Z
TLE epoch observation values (Epoch: 2025-10-14T06:52:56.542Z)
Latitude
-0.00001°
Longitude
-116.12817°
Altitude
482.829 km
Speed
7.626 km/s
True Right ascension
00h 40m 44s
True Declination
0° 00' 00"
Sunlit
Object was in full shadow at epoch
Visualization orbit readout
Latitude
Unknown
Longitude
Unknown
Altitude
Unknown
Speed
Unknown
Apparent Right ascension
Unknown
Apparent Declination
Unknown
Sunlit
N/A
Visualization observer readout
Local Sidereal Time
12:59:17
Azimuth
Unknown
Elevation
Unknown
Doppler factor
Unknown
Orbital elements
Apogee altitude
485.515 km
Perigee altitude
484.609 km
Semi-major axis
6,863.199 km
Eccentricity
0.00007
Inclination
43.0041°
RAAN
10.1848°
Arg. of periapsis
278.2749°
True anomaly
81.81029°
Mean anomaly
81.8028°
Eccentric anomaly
81.80654°
Mean motion
3.81727 °/min
Orbital period
94.31 mins
BSTAR
0.001166
Loading maneuver chart data...
Computing Atmospheric mass density...
Loading historical data...
Loading historical data...
Loading historical data...
Loading historical data...
Loading historical data...
Loading historical data...
Loading historical data...

Documentation

Showing up to 5 results
|